Time,TemperatureF,DewpointF,PressureIn,WindDirection,WindDirectionDegrees,WindSpeedMPH,WindSpeedGustMPH,Humidity,HourlyPrecipIn,Conditions,Clouds,dailyrainin,SolarRadiationWatts/m^2,SoftwareType,DateUTC
2013-02-07 00:11:00,62.0,16.0,30.03,SSW,208,9.0,14.0,16,-99.99,,,-99.99,0.000000,,2013-02-07 08:11:00,
2013-02-07 00:21:00,62.0,15.0,30.03,SSW,209,9.0,13.0,16,-99.99,,,-99.99,0.000000,,2013-02-07 08:21:00,
2013-02-07 00:31:00,62.0,17.0,30.03,SSW,210,9.0,15.0,17,-99.99,,,-99.99,0.000000,,2013-02-07 08:31:00,
2013-02-07 00:41:00,62.0,17.0,30.03,SSW,210,9.0,15.0,17,-99.99,,,-99.99,0.000000,,2013-02-07 08:41:00,
2013-02-07 00:52:00,62.0,15.0,30.03,SSW,204,9.0,14.0,16,-99.99,,,-99.99,0.000000,,2013-02-07 08:52:00,
2013-02-07 01:01:00,62.0,15.0,30.03,SSW,204,9.0,14.0,16,-99.99,,,-99.99,0.000000,,2013-02-07 09:01:00,
2013-02-07 01:11:00,62.0,15.0,30.03,SSW,201,9.0,16.0,16,-99.99,,,-99.99,0.000000,,2013-02-07 09:11:00,
2013-02-07 01:21:00,62.0,15.0,30.04,SSW,198,8.0,16.0,16,-99.99,,,-99.99,0.000000,,2013-02-07 09:21:00,
2013-02-07 01:31:00,62.0,15.0,30.03,SSW,202,8.0,16.0,16,-99.99,,,-99.99,0.000000,,2013-02-07 09:31:00,
2013-02-07 01:41:00,62.0,15.0,30.03,SSW,202,8.0,16.0,16,-99.99,,,-99.99,0.000000,,2013-02-07 09:41:00,
2013-02-07 01:51:00,62.0,15.0,30.03,SSW,200,9.0,14.0,16,-99.99,,,-99.99,0.000000,,2013-02-07 09:51:00,
2013-02-07 02:01:00,62.0,15.0,30.03,SSW,200,9.0,14.0,16,-99.99,,,-99.99,0.000000,,2013-02-07 10:01:00,
2013-02-07 02:22:00,61.0,15.0,30.03,SSW,204,11.0,19.0,16,-99.99,,,-99.99,0.000000,,2013-02-07 10:22:00,
2013-02-07 02:41:00,61.0,13.0,30.03,SSW,203,11.0,17.0,15,-99.99,,,-99.99,0.000000,,2013-02-07 10:41:00,
2013-02-07 02:51:00,61.0,13.0,30.03,SSW,201,11.0,16.0,15,-99.99,,,-99.99,0.000000,,2013-02-07 10:51:00,
2013-02-07 03:01:00,61.0,13.0,30.03,SSW,201,11.0,16.0,15,-99.99,,,-99.99,0.000000,,2013-02-07 11:01:00,
2013-02-07 03:22:00,61.0,12.0,30.03,SSW,198,10.0,17.0,14,-99.99,,,-99.99,0.000000,,2013-02-07 11:22:00,
2013-02-07 03:32:00,62.0,12.0,30.03,SSW,198,10.0,19.0,14,-99.99,,,-99.99,0.000000,,2013-02-07 11:32:00,
2013-02-07 03:44:00,61.0,11.0,30.03,SSW,206,9.0,17.0,14,-99.99,,,-99.99,0.000000,,2013-02-07 11:44:00,
2013-02-07 03:52:00,61.0,11.0,30.03,SSW,207,8.0,16.0,14,-99.99,,,-99.99,0.000000,,2013-02-07 11:52:00,
2013-02-07 04:02:00,61.0,11.0,30.03,SSW,207,8.0,16.0,14,-99.99,,,-99.99,0.000000,,2013-02-07 12:02:00,
2013-02-07 04:11:00,60.0,11.0,30.03,SW,220,8.0,12.0,14,-99.99,,,-99.99,0.000000,,2013-02-07 12:11:00,
2013-02-07 04:22:00,60.0,11.0,30.03,SW,220,8.0,12.0,14,-99.99,,,-99.99,0.000000,,2013-02-07 12:22:00,
2013-02-07 04:32:00,61.0,11.0,30.02,SW,226,9.0,16.0,14,-99.99,,,-99.99,0.000000,,2013-02-07 12:32:00,
2013-02-07 04:42:00,60.0,11.0,30.02,SW,217,7.0,12.0,14,-99.99,,,-99.99,0.000000,,2013-02-07 12:42:00,
2013-02-07 04:52:00,60.0,11.0,30.02,SW,217,7.0,12.0,14,-99.99,,,-99.99,0.000000,,2013-02-07 12:52:00,
2013-02-07 05:02:00,60.0,12.0,30.02,SSW,206,8.0,14.0,15,-99.99,,,-99.99,0.000000,,2013-02-07 13:02:00,
2013-02-07 05:11:00,60.0,12.0,30.02,SSW,207,7.0,12.0,15,-99.99,,,-99.99,0.000000,,2013-02-07 13:11:00,
2013-02-07 05:21:00,60.0,14.0,30.02,SSW,206,6.0,10.0,16,-99.99,,,-99.99,0.000000,,2013-02-07 13:21:00,
2013-02-07 05:32:00,60.0,15.0,30.02,SSW,206,8.0,14.0,17,-99.99,,,-99.99,0.000000,,2013-02-07 13:32:00,
2013-02-07 05:42:00,60.0,15.0,30.02,SSW,206,8.0,14.0,17,-99.99,,,-99.99,0.000000,,2013-02-07 13:42:00,
2013-02-07 05:51:00,61.0,14.0,30.02,SW,219,10.0,15.0,16,-99.99,,,-99.99,0.000000,,2013-02-07 13:51:00,
2013-02-07 06:01:00,60.0,15.0,30.02,SW,218,10.0,14.0,17,-99.99,,,-99.99,0.000000,,2013-02-07 14:01:00,
2013-02-07 06:11:00,60.0,17.0,30.03,SW,218,8.0,14.0,18,-99.99,,,-99.99,0.000000,,2013-02-07 14:11:00,
2013-02-07 06:21:00,60.0,16.0,30.03,SSW,198,6.0,12.0,18,-99.99,,,-99.99,0.000000,,2013-02-07 14:21:00,
2013-02-07 06:32:00,60.0,16.0,30.03,SSW,207,7.0,11.0,18,-99.99,,,-99.99,0.000000,,2013-02-07 14:32:00,
2013-02-07 06:52:00,60.0,16.0,30.03,SSW,209,7.0,10.0,18,-99.99,,,-99.99,0.000000,,2013-02-07 14:52:00,
2013-02-07 07:01:00,60.0,16.0,30.02,SSW,202,7.0,12.0,18,-99.99,,,-99.99,0.000000,,2013-02-07 15:01:00,
2013-02-07 07:11:00,60.0,17.0,30.03,SSW,198,7.0,12.0,19,-99.99,,,-99.99,0.000000,,2013-02-07 15:11:00,
2013-02-07 07:22:00,60.0,17.0,30.03,SSW,198,7.0,12.0,19,-99.99,,,-99.99,0.000000,,2013-02-07 15:22:00,
2013-02-07 07:32:00,60.0,18.0,30.03,SSW,206,7.0,11.0,19,-99.99,,,-99.99,10.000000,,2013-02-07 15:32:00,
2013-02-07 07:41:00,60.0,18.0,30.03,SSW,206,7.0,11.0,19,-99.99,,,-99.99,10.000000,,2013-02-07 15:41:00,
2013-02-07 07:52:00,60.0,17.0,30.04,SSW,196,5.0,11.0,19,-99.99,,,-99.99,30.000000,,2013-02-07 15:52:00,
2013-02-07 08:01:00,60.0,17.0,30.04,SSW,196,5.0,11.0,19,-99.99,,,-99.99,30.000000,,2013-02-07 16:01:00,
2013-02-07 08:11:00,61.0,17.0,30.05,SSW,193,4.0,7.0,18,-99.99,,,-99.99,150.000000,,2013-02-07 16:11:00,
2013-02-07 08:21:00,62.0,18.0,30.05,SSW,196,4.0,7.0,18,-99.99,,,-99.99,190.000000,,2013-02-07 16:21:00,
2013-02-07 08:31:00,63.0,18.0,30.06,South,182,5.0,9.0,18,-99.99,,,-99.99,260.000000,,2013-02-07 16:31:00,
2013-02-07 08:41:00,63.0,18.0,30.06,South,182,5.0,9.0,18,-99.99,,,-99.99,260.000000,,2013-02-07 16:41:00,
2013-02-07 08:52:00,59.0,27.0,30.06,NE,37,4.0,6.0,29,-99.99,,,-99.99,320.000000,,2013-02-07 16:52:00,
2013-02-07 09:01:00,59.0,27.0,30.06,NE,37,4.0,6.0,29,-99.99,,,-99.99,320.000000,,2013-02-07 17:01:00,
2013-02-07 09:11:00,59.0,29.0,30.06,NNE,31,3.0,4.0,32,-99.99,,,-99.99,350.000000,,2013-02-07 17:11:00,
2013-02-07 09:21:00,60.0,30.0,30.06,NE,36,2.0,4.0,32,-99.99,,,-99.99,380.000000,,2013-02-07 17:21:00,
2013-02-07 09:31:00,60.0,30.0,30.06,NNE,18,3.0,4.0,32,-99.99,,,-99.99,410.000000,,2013-02-07 17:31:00,
2013-02-07 09:42:00,60.0,30.0,30.07,NNE,22,2.0,4.0,32,-99.99,,,-99.99,440.000000,,2013-02-07 17:42:00,
2013-02-07 09:52:00,63.0,29.0,30.06,SE,124,1.0,2.0,28,-99.99,,,-99.99,500.000000,,2013-02-07 17:52:00,
2013-02-07 10:01:00,63.0,29.0,30.06,SE,124,1.0,2.0,28,-99.99,,,-99.99,500.000000,,2013-02-07 18:01:00,
2013-02-07 10:11:00,64.0,29.0,30.06,SSE,154,1.0,2.0,26,-99.99,,,-99.99,530.000000,,2013-02-07 18:11:00,
2013-02-07 10:22:00,66.0,29.0,30.06,East,95,1.0,2.0,25,-99.99,,,-99.99,560.000000,,2013-02-07 18:22:00,
2013-02-07 10:31:00,67.0,27.0,30.06,ENE,57,1.0,3.0,22,-99.99,,,-99.99,580.000000,,2013-02-07 18:31:00,
2013-02-07 10:41:00,67.0,28.0,30.06,North,355,1.0,3.0,23,-99.99,,,-99.99,600.000000,,2013-02-07 18:41:00,
2013-02-07 10:51:00,67.0,27.0,30.05,NNE,22,2.0,4.0,22,-99.99,,,-99.99,620.000000,,2013-02-07 18:51:00,
2013-02-07 11:01:00,68.0,25.0,30.05,North,351,1.0,3.0,19,-99.99,,,-99.99,640.000000,,2013-02-07 19:01:00,
2013-02-07 11:11:00,68.0,23.0,30.04,North,356,3.0,6.0,18,-99.99,,,-99.99,660.000000,,2013-02-07 19:11:00,
2013-02-07 11:22:00,68.0,23.0,30.04,NNE,25,4.0,10.0,18,-99.99,,,-99.99,670.000000,,2013-02-07 19:22:00,
2013-02-07 11:31:00,68.0,26.0,30.04,North,359,7.0,9.0,20,-99.99,,,-99.99,680.000000,,2013-02-07 19:31:00,
2013-02-07 11:41:00,68.0,26.0,30.04,North,349,7.0,11.0,21,-99.99,,,-99.99,690.000000,,2013-02-07 19:41:00,
2013-02-07 11:51:00,68.0,26.0,30.04,North,349,7.0,11.0,21,-99.99,,,-99.99,690.000000,,2013-02-07 19:51:00,
2013-02-07 12:01:00,68.0,27.0,30.03,NNW,345,6.0,9.0,21,-99.99,,,-99.99,700.000000,,2013-02-07 20:01:00,
2013-02-07 12:11:00,69.0,26.0,30.03,North,352,5.0,9.0,20,-99.99,,,-99.99,710.000000,,2013-02-07 20:11:00,
2013-02-07 12:21:00,69.0,26.0,30.02,North,3,5.0,8.0,20,-99.99,,,-99.99,720.000000,,2013-02-07 20:21:00,
2013-02-07 12:31:00,69.0,26.0,30.00,North,356,3.0,7.0,20,-99.99,,,-99.99,720.000000,,2013-02-07 20:31:00,
2013-02-07 12:41:00,69.0,26.0,30.00,North,356,3.0,7.0,20,-99.99,,,-99.99,720.000000,,2013-02-07 20:41:00,
2013-02-07 12:52:00,69.0,25.0,29.99,NNW,348,4.0,7.0,19,-99.99,,,-99.99,710.000000,,2013-02-07 20:52:00,
2013-02-07 13:01:00,69.0,25.0,29.99,NNW,348,4.0,7.0,19,-99.99,,,-99.99,710.000000,,2013-02-07 21:01:00,
2013-02-07 13:11:00,70.0,26.0,29.98,ENE,58,4.0,8.0,19,-99.99,,,-99.99,680.000000,,2013-02-07 21:11:00,
2013-02-07 13:21:00,70.0,26.0,29.98,ENE,58,4.0,8.0,19,-99.99,,,-99.99,680.000000,,2013-02-07 21:21:00,
2013-02-07 13:31:00,70.0,27.0,29.97,NE,46,5.0,11.0,20,-99.99,,,-99.99,680.000000,,2013-02-07 21:31:00,
2013-02-07 13:41:00,70.0,27.0,29.97,NE,46,5.0,11.0,20,-99.99,,,-99.99,680.000000,,2013-02-07 21:41:00,
2013-02-07 13:51:00,70.0,28.0,29.96,NE,44,6.0,9.0,21,-99.99,,,-99.99,660.000000,,2013-02-07 21:51:00,
2013-02-07 14:01:00,70.0,28.0,29.96,NE,44,6.0,9.0,21,-99.99,,,-99.99,660.000000,,2013-02-07 22:01:00,
2013-02-07 14:11:00,70.0,28.0,29.95,East,88,5.0,9.0,21,-99.99,,,-99.99,620.000000,,2013-02-07 22:11:00,
2013-02-07 14:21:00,70.0,28.0,29.95,ENE,72,4.0,7.0,21,-99.99,,,-99.99,600.000000,,2013-02-07 22:21:00,
2013-02-07 14:31:00,70.0,28.0,29.95,ENE,64,5.0,8.0,21,-99.99,,,-99.99,570.000000,,2013-02-07 22:31:00,
2013-02-07 14:42:00,70.0,29.0,29.95,East,80,4.0,7.0,22,-99.99,,,-99.99,550.000000,,2013-02-07 22:42:00,
2013-02-07 14:51:00,70.0,29.0,29.94,East,82,4.0,8.0,22,-99.99,,,-99.99,530.000000,,2013-02-07 22:51:00,
2013-02-07 15:01:00,70.0,29.0,29.94,ENE,66,6.0,10.0,22,-99.99,,,-99.99,500.000000,,2013-02-07 23:01:00,
2013-02-07 15:11:00,70.0,29.0,29.94,ENE,66,6.0,10.0,22,-99.99,,,-99.99,500.000000,,2013-02-07 23:11:00,
2013-02-07 15:21:00,69.0,30.0,29.93,East,92,4.0,7.0,23,-99.99,,,-99.99,440.000000,,2013-02-07 23:21:00,
2013-02-07 15:31:00,70.0,31.0,29.93,ENE,74,6.0,10.0,24,-99.99,,,-99.99,410.000000,,2013-02-07 23:31:00,
2013-02-07 15:41:00,69.0,31.0,29.92,ENE,73,6.0,10.0,24,-99.99,,,-99.99,380.000000,,2013-02-07 23:41:00,
2013-02-07 15:52:00,69.0,31.0,29.92,East,81,6.0,8.0,24,-99.99,,,-99.99,350.000000,,2013-02-07 23:52:00,
2013-02-07 16:01:00,69.0,31.0,29.92,East,90,5.0,8.0,24,-99.99,,,-99.99,310.000000,,2013-02-08 00:01:00,
2013-02-07 16:11:00,69.0,30.0,29.92,East,88,6.0,9.0,24,-99.99,,,-99.99,280.000000,,2013-02-08 00:11:00,
2013-02-07 16:21:00,68.0,30.0,29.92,East,82,6.0,10.0,24,-99.99,,,-99.99,250.000000,,2013-02-08 00:21:00,
2013-02-07 16:31:00,68.0,29.0,29.92,ENE,76,6.0,8.0,23,-99.99,,,-99.99,220.000000,,2013-02-08 00:31:00,
2013-02-07 16:41:00,68.0,29.0,29.92,East,80,6.0,9.0,23,-99.99,,,-99.99,110.000000,,2013-02-08 00:41:00,
2013-02-07 16:52:00,67.0,29.0,29.92,ENE,76,5.0,8.0,24,-99.99,,,-99.99,50.000000,,2013-02-08 00:52:00,
2013-02-07 17:01:00,67.0,29.0,29.91,ENE,78,4.0,8.0,24,-99.99,,,-99.99,40.000000,,2013-02-08 01:01:00,
2013-02-07 17:11:00,67.0,29.0,29.91,ENE,78,4.0,8.0,24,-99.99,,,-99.99,40.000000,,2013-02-08 01:11:00,
2013-02-07 17:21:00,67.0,29.0,29.91,ENE,78,4.0,8.0,24,-99.99,,,-99.99,40.000000,,2013-02-08 01:21:00,
2013-02-07 17:31:00,66.0,29.0,29.91,East,98,4.0,8.0,25,-99.99,,,-99.99,20.000000,,2013-02-08 01:31:00,
2013-02-07 17:41:00,66.0,29.0,29.91,ESE,105,3.0,7.0,25,-99.99,,,-99.99,10.000000,,2013-02-08 01:41:00,
2013-02-07 17:51:00,64.0,30.0,29.91,SSW,194,0.0,2.0,27,-99.99,,,-99.99,0.000000,,2013-02-08 01:51:00,
2013-02-07 18:01:00,64.0,30.0,29.91,SSW,194,0.0,2.0,27,-99.99,,,-99.99,0.000000,,2013-02-08 02:01:00,
2013-02-07 18:11:00,64.0,30.0,29.91,SW,219,1.0,3.0,28,-99.99,,,-99.99,0.000000,,2013-02-08 02:11:00,
2013-02-07 18:21:00,64.0,30.0,29.90,SW,234,4.0,12.0,28,-99.99,,,-99.99,0.000000,,2013-02-08 02:21:00,
2013-02-07 18:31:00,64.0,30.0,29.90,SW,234,4.0,12.0,28,-99.99,,,-99.99,0.000000,,2013-02-08 02:31:00,
2013-02-07 18:42:00,66.0,29.0,29.91,SW,223,12.0,20.0,25,-99.99,,,-99.99,0.000000,,2013-02-08 02:42:00,
2013-02-07 18:52:00,66.0,25.0,29.91,SW,232,15.0,28.0,21,-99.99,,,-99.99,0.000000,,2013-02-08 02:52:00,
2013-02-07 19:01:00,66.0,21.0,29.91,SW,233,18.0,28.0,18,-99.99,,,-99.99,0.000000,,2013-02-08 03:01:00,
2013-02-07 19:12:00,66.0,20.0,29.91,SW,231,16.0,25.0,17,-99.99,,,-99.99,0.000000,,2013-02-08 03:12:00,
2013-02-07 19:22:00,65.0,20.0,29.91,SW,232,13.0,21.0,17,-99.99,,,-99.99,0.000000,,2013-02-08 03:22:00,
2013-02-07 19:31:00,65.0,22.0,29.90,SW,234,16.0,23.0,19,-99.99,,,-99.99,0.000000,,2013-02-08 03:31:00,
2013-02-07 19:41:00,65.0,23.0,29.90,SW,234,19.0,25.0,20,-99.99,,,-99.99,0.000000,,2013-02-08 03:41:00,
2013-02-07 19:51:00,65.0,23.0,29.90,SW,234,19.0,25.0,20,-99.99,,,-99.99,0.000000,,2013-02-08 03:51:00,
2013-02-07 20:01:00,64.0,28.0,29.90,SSW,194,8.0,18.0,26,-99.99,,,-99.99,0.000000,,2013-02-08 04:01:00,
2013-02-07 20:11:00,63.0,28.0,29.90,South,181,9.0,14.0,26,-99.99,,,-99.99,0.000000,,2013-02-08 04:11:00,
2013-02-07 20:21:00,63.0,27.0,29.89,South,181,12.0,19.0,25,-99.99,,,-99.99,0.000000,,2013-02-08 04:21:00,
2013-02-07 20:31:00,63.0,26.0,29.89,South,176,10.0,15.0,24,-99.99,,,-99.99,0.000000,,2013-02-08 04:31:00,
2013-02-07 20:41:00,62.0,29.0,29.89,ESE,102,6.0,11.0,28,-99.99,,,-99.99,0.000000,,2013-02-08 04:41:00,
2013-02-07 20:51:00,61.0,32.0,29.89,ESE,112,3.0,5.0,33,-99.99,,,-99.99,0.000000,,2013-02-08 04:51:00,
2013-02-07 21:01:00,60.0,32.0,29.88,ENE,78,4.0,7.0,34,-99.99,,,-99.99,0.000000,,2013-02-08 05:01:00,
2013-02-07 21:11:00,60.0,30.0,29.88,ENE,67,4.0,8.0,32,-99.99,,,-99.99,0.000000,,2013-02-08 05:11:00,
2013-02-07 21:22:00,59.0,31.0,29.88,North,7,2.0,6.0,35,-99.99,,,-99.99,0.000000,,2013-02-08 05:22:00,
2013-02-07 21:31:00,57.0,40.0,29.87,ENE,70,2.0,4.0,52,-99.99,,,-99.99,0.000000,,2013-02-08 05:31:00,
2013-02-07 21:41:00,57.0,40.0,29.87,ENE,70,2.0,4.0,52,-99.99,,,-99.99,0.000000,,2013-02-08 05:41:00,
2013-02-07 21:52:00,57.0,41.0,29.87,East,93,2.0,4.0,54,-99.99,,,-99.99,0.000000,,2013-02-08 05:52:00,
2013-02-07 22:01:00,56.0,41.0,29.86,North,11,1.0,3.0,56,-99.99,,,-99.99,0.000000,,2013-02-08 06:01:00,
2013-02-07 22:11:00,56.0,41.0,29.86,North,11,1.0,3.0,56,-99.99,,,-99.99,0.000000,,2013-02-08 06:11:00,
2013-02-07 22:21:00,55.0,41.0,29.87,ENE,66,4.0,8.0,58,-99.99,,,-99.99,0.000000,,2013-02-08 06:21:00,
2013-02-07 22:31:00,56.0,41.0,29.86,East,89,4.0,9.0,57,-99.99,,,-99.99,0.000000,,2013-02-08 06:31:00,
2013-02-07 22:41:00,57.0,34.0,29.85,South,171,9.0,21.0,42,-99.99,,,-99.99,0.000000,,2013-02-08 06:41:00,
2013-02-07 22:50:00,58.0,29.0,29.85,South,180,16.0,25.0,33,-99.99,,,-99.99,0.000000,,2013-02-08 06:50:00,
2013-02-07 22:51:00,57.0,34.0,29.85,South,171,9.0,21.0,42,-99.99,,,-99.99,0.000000,,2013-02-08 06:51:00,
2013-02-07 23:01:00,57.0,34.0,29.85,South,171,9.0,21.0,42,-99.99,,,-99.99,0.000000,,2013-02-08 07:01:00,
2013-02-07 23:11:00,59.0,29.0,29.84,South,174,15.0,26.0,32,-99.99,,,-99.99,0.000000,,2013-02-08 07:11:00,
2013-02-07 23:21:00,59.0,28.0,29.85,South,171,19.0,27.0,31,-99.99,,,-99.99,0.000000,,2013-02-08 07:21:00,
2013-02-07 23:31:00,59.0,28.0,29.85,South,171,19.0,27.0,31,-99.99,,,-99.99,0.000000,,2013-02-08 07:31:00,
2013-02-07 23:42:00,58.0,29.0,29.85,South,180,16.0,25.0,33,-99.99,,,-99.99,0.000000,,2013-02-08 07:42:00,